Cheboygan, MI

10:59 PM EST on December 15, 2017 (GMT -0500)
Cheboygan

Weather History for KSLH - January, 2013

Change the Weather History Date:

Wednesday, January 16, 2013

  Actual Average (KMCD) Record (KMCD)
Temperature  
Mean Temperature 24 °F -  
Max Temperature 30 °F 21 °F 40 °F (1988)
Min Temperature 18 °F 10 °F -12 °F (1982)
Degree Days  
Heating Degree Days 40    
Moisture  
Dew Point 20 °F    
Average Humidity 79    
Maximum Humidity 95    
Minimum Humidity 65    
Precipitation  
Precipitation 0.00 in - - ()
Sea Level Pressure  
Sea Level Pressure 29.75 in    
Wind  
Wind Speed 11 mph (SW)    
Max Wind Speed 22 mph    
Max Gust Speed 30 mph    
Visibility 8 miles    
Events Snow    
Averages and records for this station are not official NWS values.
T = Trace of Precipitation, MM = Missing Value Source: NWS Daily Summary

Daily Weather History Graph

Daily Weather History Graph

Search for Another Location

Airport or City:

Trip Planner

Search our weather history database for the weather conditions in past years. The results will help you decide how hot, cold, wet, or windy it might be!

Date:

Astronomy

Jan. 16, 2013 Rise Set
Actual Time 8:14 AM EST 5:22 PM EST
Civil Twilight 7:40 AM EST 5:55 PM EST
Nautical Twilight 7:04 AM EST 6:32 PM EST
Astronomical Twilight 6:28 AM EST 7:07 PM EST
Moon 10:30 AM EST 11:34 PM EST
Length of Visible Light 10h 14m
Length of Day
9h 08m
Waxing Crescent, 28% of the Moon is Illuminated
Jan 16
Waxing Crescent
Jan 18
First Quarter
Jan 26
Full
Feb 3
Last Quarter
Feb 10
New

Hourly Weather History & Observations

Time (EST) Temp. Windchill Dew Point Humidity Pressure Visibility Wind Dir Wind Speed Gust Speed Precip Events Conditions
12:15 AM 25.9 °F 16.0 °F 19.0 °F 75% 30.00 in 10.0 mi SSW 10.4 mph - N/A   Overcast
12:35 AM 26.1 °F 16.8 °F 19.2 °F 75% 29.98 in 10.0 mi SSW 9.2 mph 16.1 mph N/A   Overcast
1:15 AM 26.2 °F 16.4 °F 19.4 °F 75% 29.96 in 10.0 mi SSW 10.4 mph 16.1 mph N/A   Overcast
1:35 AM 26.2 °F 15.8 °F 19.4 °F 75% 29.95 in 10.0 mi SSW 11.5 mph 16.1 mph N/A   Overcast
1:55 AM 26.4 °F 16.6 °F 19.6 °F 75% 29.94 in 10.0 mi SW 10.4 mph - N/A   Overcast
2:15 AM 26.2 °F 17.8 °F 19.4 °F 75% 29.94 in 10.0 mi SSW 8.1 mph - N/A   Overcast
2:35 AM 25.2 °F 16.5 °F 18.9 °F 77% 29.93 in 10.0 mi SSW 8.1 mph - N/A   Mostly Cloudy
2:55 AM 24.3 °F 15.4 °F 18.5 °F 79% 29.92 in 10.0 mi South 8.1 mph - N/A   Scattered Clouds
3:15 AM 23.7 °F 14.7 °F 18.3 °F 80% 29.91 in 10.0 mi SSW 8.1 mph - N/A   Scattered Clouds
3:35 AM 23.4 °F 15.2 °F 18.3 °F 81% 29.90 in 10.0 mi South 6.9 mph - N/A   Clear
3:55 AM 21.9 °F 13.4 °F 17.6 °F 83% 29.89 in 10.0 mi South 6.9 mph - N/A   Clear
4:16 AM 21.2 °F 13.6 °F 17.6 °F 86% 29.88 in 10.0 mi South 5.8 mph - N/A   Clear
4:35 AM 21.2 °F 14.9 °F 17.6 °F 86% 29.87 in 10.0 mi South 4.6 mph - N/A   Clear
4:55 AM 20.5 °F 12.8 °F 17.4 °F 88% 29.85 in 10.0 mi SSE 5.8 mph - N/A   Clear
5:15 AM 20.3 °F 12.5 °F 17.4 °F 89% 29.83 in 10.0 mi South 5.8 mph - N/A   Clear
5:35 AM 20.5 °F 12.8 °F 17.4 °F 88% 29.82 in 10.0 mi South 5.8 mph - N/A   Clear
5:56 AM 21.0 °F 13.4 °F 17.6 °F 87% 29.80 in 10.0 mi SSE 5.8 mph - N/A   Clear
6:15 AM 22.1 °F 13.7 °F 18.3 °F 85% 29.80 in 10.0 mi South 6.9 mph - N/A   Clear
6:35 AM 24.3 °F 14.6 °F 18.3 °F 78% 29.78 in 10.0 mi South 9.2 mph - N/A   Clear
7:36 AM 24.4 °F 13.5 °F 18.1 °F 77% 29.74 in 10.0 mi South 11.5 mph 16.1 mph N/A   Clear
7:55 AM 24.6 °F 12.2 °F 18.1 °F 76% 29.72 in 10.0 mi SSW 15.0 mph 20.7 mph N/A   Clear
8:15 AM 24.6 °F 12.7 °F 18.1 °F 76% 29.72 in 10.0 mi SSW 13.8 mph 19.6 mph N/A   Clear
8:35 AM 24.8 °F 14.0 °F 18.0 °F 75% 29.71 in 10.0 mi SSW 11.5 mph 19.6 mph N/A   Clear
8:55 AM 25.2 °F 13.3 °F 18.0 °F 74% 29.70 in 10.0 mi South 13.8 mph 19.6 mph N/A   Clear
9:15 AM 25.5 °F 14.3 °F 18.0 °F 73% 29.68 in 10.0 mi SSW 12.7 mph 17.3 mph N/A   Scattered Clouds
9:35 AM 25.9 °F 13.8 °F 18.1 °F 73% 29.67 in 10.0 mi SSW 15.0 mph 20.7 mph N/A   Mostly Cloudy
9:55 AM 26.6 °F 15.2 °F 18.3 °F 71% 29.66 in 10.0 mi SSW 13.8 mph 19.6 mph N/A   Mostly Cloudy
10:15 AM 27.3 °F 15.6 °F 18.7 °F 70% 29.65 in 10.0 mi SSW 15.0 mph 20.7 mph N/A   Scattered Clouds
10:35 AM 28.4 °F 17.0 °F 19.2 °F 69% 29.63 in 10.0 mi SSW 15.0 mph 24.2 mph N/A   Scattered Clouds
10:55 AM 29.8 °F 16.6 °F 20.1 °F 67% 29.61 in 10.0 mi SSW 21.9 mph 28.8 mph N/A   Scattered Clouds
11:16 AM 29.8 °F 18.4 °F 21.0 °F 70% 29.59 in 7.0 mi SSW 16.1 mph 27.6 mph N/A   Overcast
11:35 AM 29.7 °F 16.7 °F 21.9 °F 73% 29.59 in 3.0 mi SSW 20.7 mph 28.8 mph N/A Snow Light Snow
11:55 AM 29.1 °F 16.7 °F 22.8 °F 77% 29.58 in 2.0 mi SW 18.4 mph 25.3 mph N/A Snow Light Snow
12:15 PM 28.4 °F 19.1 °F 24.4 °F 85% 29.58 in 1.0 mi SW 10.4 mph 20.7 mph N/A Snow Light Snow
12:35 PM 28.4 °F 16.6 °F 25.7 °F 90% 29.57 in 0.5 mi SW 16.1 mph 20.7 mph N/A Snow Snow
12:55 PM 28.4 °F 19.1 °F 26.6 °F 93% 29.56 in 0.5 mi SW 10.4 mph 16.1 mph N/A Snow Snow
1:15 PM 28.9 °F 20.4 °F 27.5 °F 94% 29.57 in 0.5 mi SW 9.2 mph - N/A Snow Light Snow
1:35 PM 30.2 °F 20.8 °F 28.9 °F 95% 29.57 in 0.5 mi WSW 11.5 mph 19.6 mph N/A Snow Light Snow
1:55 PM 30.9 °F 21.7 °F 27.9 °F 88% 29.57 in 2.0 mi West 11.5 mph 21.9 mph N/A Snow Light Snow
2:15 PM 30.2 °F 18.9 °F 25.9 °F 84% 29.58 in 5.0 mi West 16.1 mph 25.3 mph N/A   Overcast
2:35 PM 30.0 °F 19.1 °F 24.8 °F 81% 29.58 in 10.0 mi West 15.0 mph 25.3 mph N/A   Overcast
2:55 PM 29.8 °F 18.4 °F 24.4 °F 80% 29.59 in 10.0 mi West 16.1 mph 21.9 mph N/A   Overcast
3:15 PM 29.8 °F 19.3 °F 24.4 °F 80% 29.60 in 10.0 mi West 13.8 mph 19.6 mph N/A   Overcast
3:35 PM 29.8 °F 21.5 °F 24.4 °F 80% 29.60 in 10.0 mi WSW 9.2 mph 20.7 mph N/A   Overcast
3:55 PM 30.0 °F 21.7 °F 24.8 °F 81% 29.61 in 10.0 mi West 9.2 mph 17.3 mph N/A   Overcast
4:15 PM 30.0 °F 20.5 °F 25.3 °F 83% 29.62 in 10.0 mi West 11.5 mph 18.4 mph N/A   Overcast
4:35 PM 30.0 °F 20.0 °F 25.7 °F 84% 29.62 in 10.0 mi WSW 12.7 mph 18.4 mph N/A   Overcast
4:55 PM 30.2 °F 20.8 °F 25.7 °F 83% 29.64 in 10.0 mi West 11.5 mph 17.3 mph N/A   Overcast
5:15 PM 30.4 °F 21.5 °F 25.3 °F 82% 29.65 in 10.0 mi WSW 10.4 mph 17.3 mph N/A   Overcast
5:35 PM 30.4 °F 21.0 °F 25.3 °F 82% 29.67 in 10.0 mi West 11.5 mph - N/A   Overcast
5:55 PM 30.2 °F 21.3 °F 26.1 °F 85% 29.68 in 5.0 mi West 10.4 mph - N/A Snow Light Snow
6:15 PM 30.2 °F 21.9 °F 27.0 °F 88% 29.70 in 3.0 mi West 9.2 mph - N/A Snow Light Snow
6:55 PM 29.3 °F 19.6 °F 27.9 °F 94% 29.71 in 1.5 mi WNW 11.5 mph 16.1 mph N/A Snow Light Snow
7:15 PM 28.4 °F 17.0 °F 26.1 °F 91% 29.73 in 2.5 mi WNW 15.0 mph 19.6 mph N/A Snow Light Snow
7:35 PM 28.2 °F 16.3 °F 24.8 °F 87% 29.74 in 3.0 mi WNW 16.1 mph 23.0 mph N/A Snow Light Snow
7:55 PM 27.9 °F 16.3 °F 23.0 °F 82% 29.76 in 3.0 mi WNW 15.0 mph 23.0 mph N/A Snow Light Snow
8:15 PM 27.5 °F 15.0 °F 19.9 °F 73% 29.77 in 7.0 mi NW 17.3 mph 26.5 mph N/A   Overcast
8:35 PM 25.9 °F 12.9 °F 19.2 °F 76% 29.78 in 10.0 mi NW 17.3 mph 27.6 mph N/A   Overcast
8:55 PM 24.6 °F 9.7 °F 16.3 °F 71% 29.80 in 10.0 mi NW 21.9 mph 29.9 mph N/A   Mostly Cloudy
9:15 PM 23.7 °F 9.7 °F 15.3 °F 70% 29.82 in 10.0 mi NW 18.4 mph 26.5 mph N/A   Overcast
9:35 PM 22.6 °F 8.3 °F 13.6 °F 68% 29.83 in 10.0 mi NW 18.4 mph 26.5 mph N/A   Scattered Clouds
9:55 PM 21.6 °F 7.3 °F 13.3 °F 70% 29.85 in 10.0 mi NW 17.3 mph 23.0 mph N/A   Scattered Clouds
10:15 PM 21.2 °F 10.9 °F 13.5 °F 72% 29.87 in 10.0 mi NW 9.2 mph 24.2 mph N/A   Scattered Clouds
10:35 PM 20.3 °F 6.1 °F 12.2 °F 71% 29.89 in 10.0 mi NW 16.1 mph 20.7 mph N/A   Scattered Clouds
10:55 PM 20.1 °F 5.4 °F 10.2 °F 66% 29.90 in 10.0 mi NW 17.3 mph 26.5 mph N/A   Mostly Cloudy
11:15 PM 20.1 °F 5.9 °F 10.9 °F 68% 29.92 in 10.0 mi NW 16.1 mph 23.0 mph N/A   Overcast
11:35 PM 19.0 °F 4.5 °F 9.1 °F 65% 29.93 in 10.0 mi NW 16.1 mph 24.2 mph N/A   Mostly Cloudy
11:55 PM 18.1 °F 5.0 °F 9.1 °F 68% 29.95 in 10.0 mi NW 12.7 mph 17.3 mph N/A   Mostly Cloudy